Weather reports worldwide

Advertisment
Falsterbo, Sweden (2616): temperature & dewpoint: 07.07.2020 09:00:00 - 13.07.2020 09:00:00 (CEST)Falsterbo, Sweden (2616): wind speed: 07.07.2020 09:00:00 - 13.07.2020 09:00:00 (CEST)Falsterbo, Sweden (2616): wind direction: 07.07.2020 09:00:00 - 13.07.2020 09:00:00 (CEST)Falsterbo, Sweden (2616): reduced air pressure: 07.07.2020 09:00:00 - 13.07.2020 09:00:00 (CEST)Falsterbo, Sweden (2616): visibility: 07.07.2020 09:00:00 - 13.07.2020 09:00:00 (CEST)
Date & Time tt [°C] td [°C] ff [km/h] ff [kn] dd ppp [hPa] vv [km]
13.07.2020 09:00:00 - - - - - - -
13.07.2020 08:00:00 14,0 11,7 29 16 W 1023,5 19
13.07.2020 07:00:00 - - - - - - -
13.07.2020 06:00:00 - - - - - - -
13.07.2020 05:00:00 - - - - - - -
13.07.2020 04:00:00 - - - - - - -
13.07.2020 03:00:00 - - - - - - -
13.07.2020 02:00:00 - - - - - - -
13.07.2020 01:00:00 - - - - - - -
13.07.2020 00:00:00 - - - - - - -
12.07.2020 23:00:00 - - - - - - -
12.07.2020 22:00:00 - - - - - - -
12.07.2020 21:00:00 - - - - - - -
12.07.2020 20:00:00 16,3 12,1 32 18 W 1023,9 35
12.07.2020 19:00:00 - - - - - - -
12.07.2020 18:00:00 - - - - - - -
12.07.2020 17:00:00 16,4 11,8 32 18 W 1024,4 45
12.07.2020 16:00:00 - - - - - - -
12.07.2020 15:00:00 - - - - - - -
12.07.2020 14:00:00 17,1 10,5 29 16 W 1024,3 50
12.07.2020 13:00:00 - - - - - - -
12.07.2020 12:00:00 - - - - - - -
12.07.2020 11:00:00 15,2 10,6 32 18 W 1024,0 40
12.07.2020 10:00:00 - - - - - - -
12.07.2020 09:00:00 - - - - - - -
12.07.2020 08:00:00 14,1 10,9 32 18 W 1023,3 24
12.07.2020 07:00:00 - - - - - - -
12.07.2020 06:00:00 - - - - - - -
12.07.2020 05:00:00 - - - - - - -
12.07.2020 04:00:00 - - - - - - -
12.07.2020 03:00:00 - - - - - - -
12.07.2020 02:00:00 - - - - - - -
12.07.2020 01:00:00 - - - - - - -
12.07.2020 00:00:00 - - - - - - -
11.07.2020 23:00:00 - - - - - - -
11.07.2020 22:00:00 - - - - - - -
11.07.2020 21:00:00 - - - - - - -
11.07.2020 20:00:00 16,6 9,8 36 19 W 1020,6 50
11.07.2020 19:00:00 - - - - - - -
11.07.2020 18:00:00 - - - - - - -
11.07.2020 17:00:00 17,6 10,0 32 18 W 1019,7 45
11.07.2020 16:00:00 - - - - - - -
11.07.2020 15:00:00 - - - - - - -
11.07.2020 14:00:00 17,6 9,0 29 16 W 1019,0 70
11.07.2020 13:00:00 - - - - - - -
11.07.2020 12:00:00 - - - - - - -
11.07.2020 11:00:00 16,2 10,3 36 19 W 1017,9 45
11.07.2020 10:00:00 - - - - - - -
11.07.2020 09:00:00 - - - - - - -
11.07.2020 08:00:00 13,5 10,1 43 23 W 1015,7 35
11.07.2020 07:00:00 - - - - - - -
11.07.2020 06:00:00 - - - - - - -
11.07.2020 05:00:00 - - - - - - -
11.07.2020 04:00:00 - - - - - - -
11.07.2020 03:00:00 - - - - - - -
11.07.2020 02:00:00 - - - - - - -
11.07.2020 01:00:00 - - - - - - -
11.07.2020 00:00:00 - - - - - - -
10.07.2020 23:00:00 - - - - - - -
10.07.2020 22:00:00 - - - - - - -
10.07.2020 21:00:00 - - - - - - -
10.07.2020 20:00:00 13,6 9,8 22 12 W 1010,5 45
10.07.2020 19:00:00 - - - - - - -
10.07.2020 18:00:00 - - - - - - -
10.07.2020 17:00:00 13,1 9,2 22 12 NNW 1009,3 17
10.07.2020 16:00:00 - - - - - - -
10.07.2020 15:00:00 - - - - - - -
10.07.2020 14:00:00 12,6 9,6 18 10 N 1008,3 7
10.07.2020 13:00:00 - - - - - - -
10.07.2020 12:00:00 - - - - - - -
10.07.2020 11:00:00 14,6 11,6 7 4 E 1008,7 35
10.07.2020 10:00:00 - - - - - - -
10.07.2020 09:00:00 - - - - - - -
10.07.2020 08:00:00 14,0 12,4 7 4 ENE 1009,2 45
10.07.2020 07:00:00 - - - - - - -
10.07.2020 06:00:00 - - - - - - -
10.07.2020 05:00:00 - - - - - - -
10.07.2020 04:00:00 - - - - - - -
10.07.2020 03:00:00 - - - - - - -
10.07.2020 02:00:00 - - - - - - -
10.07.2020 01:00:00 - - - - - - -
10.07.2020 00:00:00 - - - - - - -
09.07.2020 23:00:00 - - - - - - -
09.07.2020 22:00:00 - - - - - - -
09.07.2020 21:00:00 - - - - - - -
09.07.2020 20:00:00 14,4 9,2 7 4 S 1011,3 60
09.07.2020 19:00:00 - - - - - - -
09.07.2020 18:00:00 - - - - - - -
09.07.2020 17:00:00 16,4 10,1 14 8 S 1012,2 45
09.07.2020 16:00:00 - - - - - - -
09.07.2020 15:00:00 - - - - - - -
09.07.2020 14:00:00 17,4 10,5 18 10 S 1013,5 45
09.07.2020 13:00:00 - - - - - - -
09.07.2020 12:00:00 - - - - - - -
09.07.2020 11:00:00 17,4 11,0 11 6 SSW 1014,2 45
09.07.2020 10:00:00 - - - - - - -
09.07.2020 09:00:00 - - - - - - -
09.07.2020 08:00:00 13,9 9,1 18 10 W 1014,6 40
09.07.2020 07:00:00 - - - - - - -
09.07.2020 06:00:00 - - - - - - -
09.07.2020 05:00:00 - - - - - - -
09.07.2020 04:00:00 - - - - - - -
09.07.2020 03:00:00 - - - - - - -
09.07.2020 02:00:00 - - - - - - -
09.07.2020 01:00:00 - - - - - - -
09.07.2020 00:00:00 - - - - - - -
08.07.2020 23:00:00 - - - - - - -
08.07.2020 22:00:00 - - - - - - -
08.07.2020 21:00:00 - - - - - - -
08.07.2020 20:00:00 16,0 8,5 32 18 W 1012,7 55
08.07.2020 19:00:00 - - - - - - -
08.07.2020 18:00:00 - - - - - - -
08.07.2020 17:00:00 16,8 9,3 29 16 WNW 1012,4 55
08.07.2020 16:00:00 - - - - - - -
08.07.2020 15:00:00 - - - - - - -
08.07.2020 14:00:00 16,0 8,5 29 16 W 1011,8 65
08.07.2020 13:00:00 - - - - - - -
08.07.2020 12:00:00 - - - - - - -
08.07.2020 11:00:00 13,7 5,9 29 16 W 1011,3 55
08.07.2020 10:00:00 - - - - - - -
08.07.2020 09:00:00 - - - - - - -
08.07.2020 08:00:00 12,9 9,2 36 19 W 1010,7 30
08.07.2020 07:00:00 - - - - - - -
08.07.2020 06:00:00 - - - - - - -
08.07.2020 05:00:00 - - - - - - -
08.07.2020 04:00:00 - - - - - - -
08.07.2020 03:00:00 - - - - - - -
08.07.2020 02:00:00 - - - - - - -
08.07.2020 01:00:00 - - - - - - -
08.07.2020 00:00:00 - - - - - - -
07.07.2020 23:00:00 - - - - - - -
07.07.2020 22:00:00 - - - - - - -
07.07.2020 21:00:00 - - - - - - -
07.07.2020 20:00:00 13,6 10,2 36 19 WSW 1011,7 40
07.07.2020 19:00:00 - - - - - - -
07.07.2020 18:00:00 - - - - - - -
07.07.2020 17:00:00 13,9 10,9 32 18 W 1013,1 35
07.07.2020 16:00:00 - - - - - - -
07.07.2020 15:00:00 - - - - - - -
07.07.2020 14:00:00 17,2 8,3 36 19 WSW 1013,5 45
07.07.2020 13:00:00 - - - - - - -
07.07.2020 12:00:00 - - - - - - -
07.07.2020 11:00:00 16,0 9,7 32 18 W 1014,2 35
07.07.2020 10:00:00 - - - - - - -
07.07.2020 09:00:00 - - - - - - -

tt = temperature
td = dewpoint
ff = wind speed
dd = wind direction
ppp = reduced air pressure
vv = visibility

Next stations